GW0543 Weather Reports


time (UTC)temp
C
wind
direction
speed
KPH
gust
KPH
rain 1hr
cm
rain 24hr
cm
rain mn
cm
humidity
%
barometer
mb
20260506163101 13 0 3.2 12.9 0.00 3.66 1.42 92 1012.7
20260506161557 13 227 0.0 8.0 0.08 3.66 1.42 92 1012.5
20260506160122 13 246 0.0 8.0 0.20 3.66 1.42 93 1012.3
20260506154600 13 0 0.0 0.0 0.28 3.84 1.42 94 1012.3
20260506153054 13 280 4.8 9.7 0.30 3.81 1.40 93 1012.4
20260506151604 12 0 0.0 6.4 0.66 3.73 1.32 93 1012.1
20260506150103 13 0 0.0 4.8 1.12 3.61 1.22 92 1012.4
20260506144552 13 61 0.0 4.8 1.07 3.53 1.12 92 1012.4
20260506143056 13 327 3.2 12.9 1.02 3.48 1.09 90 1011.9
20260506141555 13 65 4.8 12.9 0.64 3.02 0.64 86 1012.2
20260506140055 14 44 8.0 19.3 0.08 2.49 0.08 83 1012.0
20260506134556 14 85 8.0 19.3 0.05 2.64 0.05 82 1011.9
20260506133107 15 125 3.2 14.5 0.05 2.64 0.05 83 1012.0
20260506131614 15 166 3.2 19.3 0.00 2.59 0.00 77 1012.0
20260506130108 16 124 3.2 9.7 0.00 2.59 0.00 73 1012.3
20260506124556 16 147 4.8 14.5 0.00 2.59 0.00 72 1012.0
20260506123059 17 171 8.0 17.7 0.00 2.59 0.00 69 1012.0
20260506121609 18 170 8.0 19.3 0.00 2.59 0.00 66 1011.8
20260506120111 19 198 3.2 16.1 0.00 2.59 0.00 62 1011.7
20260506114558 20 142 4.8 16.1 0.00 2.59 0.00 61 1011.8
20260506113057 18 181 0.0 6.4 0.00 2.59 0.00 61 1011.8
20260506111553 18 0 0.0 3.2 0.00 2.59 0.00 63 1012.1
20260506110113 17 314 3.2 9.7 0.00 2.59 0.00 63 1012.3
20260506104611 18 319 0.0 9.7 0.00 2.59 0.00 64 1012.4
20260506103053 18 150 0.0 11.3 0.00 2.59 0.00 65 1012.6
20260506101553 17 0 0.0 1.6 0.00 2.59 0.00 68 1012.8
20260506100113 16 0 0.0 3.2 0.00 2.59 0.00 66 1012.8
20260506094600 16 49 1.6 4.8 0.00 2.59 0.00 66 1012.9
20260506093101 16 49 0.0 4.8 0.00 2.59 0.00 65 1013.0
20260506091556 16 0 1.6 6.4 0.00 2.59 0.00 62 1012.8
20260506090053 16 80 3.2 8.0 0.00 2.59 0.00 62 1012.7
20260506084631 16 0 3.2 11.3 0.00 2.59 0.00 61 1012.6
20260506083055 17 63 4.8 12.9 0.00 2.59 0.00 62 1012.4
20260506081558 16 48 0.0 6.4 0.00 2.59 0.00 66 1012.4
20260506073055 15 312 3.2 8.0 0.00 2.59 0.00 68 1012.3
20260506071558 14 58 1.6 8.0 0.00 2.59 0.00 72 1012.3
20260506061556 12 0 0.0 1.6 0.00 2.59 0.00 78 1012.1
20260506044552 11 54 4.8 8.0 0.00 2.59 0.00 82 1011.4
20260506043053 -17 0 0.0 3.2 0.00 2.59 0.00 82 1011.2
20260506041604 -17 31 1.6 0.0 0.00 2.59 0.00 1011.1
20260506040059 11 0 0.0 6.4 0.00 2.59 0.00 82 1011.1
20260506034558 11 62 1.6 6.4 0.00 2.59 0.00 81 1011.0
20260506033054 11 5 1.6 12.9 0.00 2.59 0.00 81 1011.0
20260506031557 11 355 1.6 8.0 0.00 2.59 0.00 81 1011.0
20260506030052 11 349 3.2 11.3 0.00 2.59 0.00 82 1010.9
20260506024605 11 5 3.2 9.7 0.00 2.59 0.00 82 1010.9
20260506023110 11 17 4.8 11.3 0.00 2.59 0.00 81 1010.7
20260506021622 11 49 4.8 16.1 0.00 2.59 0.00 80 1010.8
20260506020100 11 15 4.8 14.5 0.00 2.59 0.00 81 1010.8
20260506014610 11 53 3.2 12.9 0.00 2.59 0.00 80 1010.8
20260506013109 11 331 3.2 14.5 0.00 2.59 0.00 79 1010.7
20260506011614 11 18 3.2 14.5 0.00 2.59 0.00 80 1010.7
20260506010059 11 345 4.8 12.9 0.00 2.59 0.00 82 1010.8
20260506004556 11 338 6.4 14.5 0.00 2.59 0.00 82 1010.9
20260506003058 11 18 6.4 17.7 0.00 2.59 0.00 82 1011.1
20260506001557 11 13 4.8 17.7 0.00 2.59 0.00 83 1011.2
20260506000057 11 360 4.8 12.9 0.00 2.59 0.00 84 1011.1
20260505234558 11 333 6.4 16.1 0.00 2.72 0.00 84 1011.5
20260505233053 11 261 4.8 12.9 0.00 2.72 0.00 84 1011.7
20260505231608 11 348 3.2 12.9 0.00 2.72 0.00 84 1011.7
20260505230053 11 12 6.4 20.9 0.00 2.72 0.00 84 1011.6
20260505224555 11 231 9.7 22.5 0.00 2.72 0.00 84 1011.3
20260505223058 11 313 14.5 24.1 0.00 2.72 0.00 84 1011.5
20260505221552 11 30 9.7 27.4 0.00 2.72 0.00 85 1011.6
20260505220100 11 36 11.3 25.7 0.00 2.72 0.00 86 1011.8
20260505214559 11 42 12.9 27.4 0.00 2.72 2.72 86 1011.9
20260505213056 11 73 12.9 17.7 0.00 2.72 2.72 87 1011.9
20260505211553 11 60 11.3 20.9 0.00 2.72 2.72 87 1012.2
20260505210058 11 85 12.9 27.4 0.00 2.72 2.72 87 1011.8
20260505204600 11 344 11.3 22.5 0.05 2.72 2.72 88 1011.8
20260505203110 11 86 9.7 24.1 0.08 2.72 2.72 88 1011.8
20260505201604 11 28 9.7 19.3 0.10 2.72 2.72 88 1011.7
20260505200055 11 346 9.7 29.0 0.38 2.72 2.72 86 1011.7
20260505194557 11 74 11.3 22.5 0.33 2.67 2.64 88 1011.8
20260505193056 11 9 6.4 19.3 0.30 2.64 2.62 91 1012.7
20260505191610 11 342 3.2 16.1 0.28 2.62 2.59 92 1012.2
20260505184552 11 48 14.5 27.4 1.17 1.85 1.83 89 1011.5
20260505183056 11 78 14.5 35.4 0.91 1.47 1.45 88 1011.3
20260505181556 11 109 22.5 37.0 0.46 1.02 0.99 87 1011.3
20260505174552 14 69 3.2 9.7 0.13 0.66 0.64 91 1010.4
20260505173058 15 87 6.4 14.5 0.00 0.56 0.53 89 1010.2
20260505171556 15 55 4.8 8.0 0.00 0.53 0.51 89 1010.3
20260505170109 15 250 3.2 8.0 0.00 0.53 0.51 90 1010.5
20260505164555 15 0 0.0 4.8 0.00 0.61 0.51 89 1010.3